QPF
0.06 0.06 0.07 0.04 0.03 0.04 0.05 0.04 0.03 0.05 0.06 0.06 0.05 0.05 0.07 0.11 0.16 0.20 0.23 0.25 0.26 0.23 0.20 0.16 0.14 0.16 0.13 0.11 0.10 0.08 0.09 0.13 0.09 0.08 0.07 0.07 0.06 0.08 0.10 0.10 0.05 0.03 0.05
0.04 0.06 0.07 0.04 0.02 0.03 0.03 0.03 0.04 0.04 0.05 0.08 0.08 0.07 0.07 0.09 0.11 0.15 0.20 0.21 0.19 0.17 0.16 0.12 0.11 0.15 0.10 0.09 0.10 0.10 0.12 0.13 0.09 0.07 0.07 0.06 0.07 0.10 0.09 0.08 0.04 0.03 0.06
0.01 0.03 0.04 0.03 0.02 0.02 0.02 0.03 0.04 0.04 0.07 0.09 0.09 0.07 0.07 0.07 0.08 0.11 0.12 0.10 0.10 0.10 0.08 0.07 0.07 0.07 0.06 0.07 0.09 0.10 0.14 0.11 0.09 0.08 0.06 0.04 0.07 0.10 0.08 0.06 0.05 0.03 0.03
0.00 0.02 0.03 0.02 0.01 0.01 0.01 0.03 0.04 0.05 0.07 0.08 0.07 0.05 0.06 0.06 0.09 0.11 0.09 0.07 0.07 0.07 0.04 0.04 0.05 0.04 0.05 0.06 0.08 0.12 0.14 0.10 0.09 0.10 0.08 0.05 0.05 0.06 0.05 0.04 0.04 0.03 0.04
0.00 0.02 0.03 0.02 0.02 0.01 0.01 0.02 0.02 0.03 0.04 0.06 0.06 0.06 0.07 0.08 0.09 0.09 0.07 0.05 0.04 0.04 0.04 0.04 0.04 0.04 0.05 0.06 0.08 0.09 0.11 0.11 0.11 0.07 0.05 0.05 0.04 0.07 0.04 0.03 0.03 0.03 0.04
0.00 0.01 0.02 0.02 0.01 0.01 0.01 0.01 0.02 0.03 0.05 0.07 0.08 0.10 0.10 0.08 0.08 0.08 0.07 0.05 0.05 0.04 0.04 0.05 0.06 0.04 0.05 0.06 0.06 0.07 0.10 0.12 0.08 0.03 0.02 0.02 0.03 0.05 0.03 0.03 0.03 0.04 0.04
0.00 0.01 0.01 0.01 0.01 0.01 0.01 0.01 0.01 0.02 0.04 0.04 0.03 0.04 0.06 0.05 0.04 0.04 0.04 0.04 0.03 0.02 0.02 0.03 0.05 0.05 0.06 0.08 0.07 0.08 0.11 0.11 0.05 0.03 0.02 0.02 0.02 0.04 0.03 0.04 0.05 0.04 0.05
0.00 0.00 0.00 0.00 0.01 0.01 0.01 0.01 0.01 0.01 0.02 0.02 0.02 0.02 0.02 0.02 0.02 0.02 0.02 0.02 0.01 0.01 0.01 0.01 0.03 0.05 0.11 0.13 0.09 0.09 0.12 0.11 0.05 0.03 0.02 0.02 0.02 0.05 0.04 0.04 0.03 0.04 0.04
0.00 0.00 0.00 0.00 0.00 0.01 0.01 0.01 0.01 0.01 0.01 0.02 0.02 0.02 0.02 0.02 0.02 0.02 0.01 0.01 0.01 0.01 0.00 0.01 0.02 0.04 0.09 0.10 0.09 0.10 0.14 0.11 0.07 0.05 0.02 0.01 0.02 0.04 0.05 0.03 0.02 0.03 0.03
0.00 0.00 0.00 0.00 0.00 0.00 0.00 0.01 0.01 0.01 0.01 0.02 0.03 0.03 0.03 0.02 0.01 0.01 0.01 0.01 0.01 0.01 0.02 0.03 0.04 0.07 0.10 0.09 0.10 0.12 0.15 0.10 0.09 0.07 0.03 0.02 0.02 0.03 0.04 0.04 0.02 0.02 0.03
0.01 0.00 0.00 0.00 0.00 0.00 0.00 0.01 0.01 0.01 0.02 0.02 0.03 0.04 0.02 0.01 0.00 0.00 0.01 0.01 0.01 0.01 0.02 0.07 0.10 0.15 0.14 0.12 0.12 0.11 0.11 0.10 0.10 0.05 0.03 0.03 0.02 0.04 0.04 0.02 0.02 0.03 0.04
0.01 0.01 0.01 0.00 0.00 0.00 0.00 0.00 0.00 0.00 0.01 0.01 0.01 0.01 0.01 0.01 0.01 0.00 0.00 0.01 0.01 0.02 0.02 0.02 0.06 0.12 0.09 0.12 0.15 0.12 0.09 0.10 0.08 0.04 0.04 0.03 0.02 0.04 0.03 0.02 0.03 0.05 0.05
0.00 0.01 0.01 0.01 0.00 0.00 0.00 0.00 0.01 0.00 0.01 0.01 0.01 0.01 0.01 0.01 0.01 0.01 0.00 0.01 0.01 0.02 0.02 0.02 0.02 0.04 0.07 0.15 0.21 0.14 0.09 0.08 0.07 0.03 0.03 0.02 0.02 0.03 0.03 0.03 0.03 0.05 0.07
0.00 0.00 0.01 0.01 0.01 0.01 0.00 0.00 0.00 0.00 0.01 0.01 0.01 0.01 0.01 0.01 0.01 0.01 0.02 0.03 0.02 0.02 0.03 0.03 0.04 0.06 0.07 0.12 0.16 0.12 0.08 0.07 0.07 0.04 0.03 0.02 0.02 0.04 0.04 0.05 0.04 0.07 0.09
0.00 0.00 0.01 0.00 0.01 0.01 0.01 0.01 0.01 0.01 0.01 0.00 0.01 0.00 0.01 0.01 0.01 0.01 0.02 0.03 0.03 0.03 0.03 0.03 0.03 0.03 0.04 0.07 0.09 0.07 0.07 0.07 0.07 0.06 0.04 0.04 0.03 0.06 0.06 0.05 0.05 0.10 0.09
0.00 0.00 0.00 0.00 0.01 0.01 0.00 0.01 0.01 0.00 0.00 0.00 0.00 0.00 0.01 0.00 0.00 0.01 0.01 0.02 0.03 0.03 0.03 0.02 0.02 0.01 0.02 0.03 0.04 0.05 0.04 0.04 0.08 0.09 0.09 0.06 0.06 0.08 0.06 0.06 0.11 0.10 0.06
0.00 0.00 0.00 0.00 0.01 0.01 0.00 0.00 0.01 0.00 0.00 0.00 0.00 0.01 0.00 0.00 0.01 0.01 0.01 0.02 0.02 0.01 0.02 0.02 0.02 0.02 0.02 0.04 0.04 0.04 0.04 0.03 0.05 0.08 0.07 0.06 0.07 0.06 0.05 0.07 0.07 0.03 0.01
0.00 0.00 0.01 0.01 0.00 0.01 0.01 0.01 0.01 0.00 0.00 0.01 0.00 0.00 0.01 0.01 0.01 0.01 0.02 0.02 0.02 0.01 0.01 0.02 0.02 0.03 0.05 0.04 0.04 0.04 0.04 0.03 0.03 0.05 0.06 0.08 0.07 0.04 0.04 0.05 0.04 0.03 0.02
0.00 0.00 0.01 0.01 0.00 0.01 0.01 0.01 0.01 0.01 0.01 0.02 0.01 0.01 0.02 0.02 0.01 0.02 0.02 0.02 0.02 0.02 0.01 0.01 0.01 0.02 0.03 0.03 0.03 0.03 0.04 0.03 0.03 0.06 0.09 0.07 0.08 0.10 0.09 0.06 0.06 0.05 0.04
0.00 0.00 0.00 0.00 0.00 0.00 0.00 0.01 0.02 0.02 0.02 0.02 0.02 0.03 0.03 0.03 0.02 0.02 0.03 0.02 0.02 0.02 0.01 0.01 0.01 0.02 0.02 0.02 0.03 0.04 0.03 0.04 0.06 0.08 0.08 0.05 0.06 0.07 0.10 0.09 0.05 0.04 0.05
0.00 0.00 0.00 0.00 0.00 0.00 0.00 0.01 0.02 0.02 0.02 0.02 0.02 0.02 0.03 0.03 0.02 0.02 0.03 0.02 0.02 0.02 0.03 0.02 0.01 0.01 0.01 0.02 0.04 0.04 0.04 0.06 0.06 0.06 0.05 0.05 0.06 0.06 0.08 0.07 0.06 0.08 0.06
0.01 0.01 0.01 0.00 0.00 0.01 0.01 0.02 0.02 0.03 0.02 0.02 0.03 0.03 0.03 0.02 0.02 0.01 0.02 0.01 0.01 0.02 0.03 0.03 0.02 0.02 0.02 0.02 0.03 0.03 0.03 0.05 0.06 0.05 0.05 0.05 0.06 0.08 0.09 0.10 0.10 0.09 0.07
0.02 0.05 0.06 0.01 0.01 0.02 0.02 0.03 0.03 0.02 0.02 0.03 0.04 0.03 0.03 0.03 0.03 0.02 0.02 0.01 0.02 0.02 0.03 0.03 0.02 0.02 0.02 0.02 0.02 0.02 0.02 0.02 0.02 0.04 0.07 0.06 0.06 0.09 0.10 0.10 0.09 0.06 0.06
0.04 0.04 0.04 0.06 0.04 0.03 0.03 0.04 0.04 0.03 0.03 0.04 0.06 0.04 0.05 0.04 0.04 0.03 0.03 0.03 0.03 0.02 0.02 0.02 0.01 0.01 0.02 0.02 0.03 0.03 0.02 0.02 0.02 0.03 0.03 0.06 0.06 0.07 0.09 0.09 0.11 0.09 0.07
0.11 0.07 0.05 0.08 0.06 0.03 0.04 0.05 0.05 0.04 0.03 0.04 0.05 0.10 0.09 0.07 0.05 0.03 0.04 0.04 0.04 0.03 0.03 0.03 0.02 0.02 0.02 0.02 0.03 0.04 0.04 0.03 0.03 0.02 0.02 0.03 0.04 0.03 0.05 0.06 0.06 0.06 0.06
0.06 0.08 0.06 0.10 0.07 0.05 0.05 0.06 0.05 0.04 0.05 0.05 0.07 0.08 0.07 0.07 0.05 0.05 0.06 0.07 0.06 0.06 0.05 0.05 0.04 0.03 0.03 0.03 0.04 0.05 0.06 0.05 0.05 0.05 0.03 0.02 0.03 0.03 0.05 0.05 0.04 0.04 0.05
MSLP
1013.07 1012.57 1012.15 1011.87 1011.75 1011.74 1011.80 1011.86 1011.87 1011.81 1011.70 1011.57 1011.48 1011.47 1011.57 1011.76 1012.02 1012.29 1012.52 1012.69 1012.79 1012.82 1012.83 1012.86 1012.92 1013.05 1013.24 1013.46 1013.70 1013.93 1014.14 1014.34 1014.53 1014.74 1014.97 1015.24 1015.52 1015.81 1016.08 1016.32 1016.52 1016.68 1016.83
1013.17 1012.79 1012.47 1012.27 1012.19 1012.20 1012.25 1012.29 1012.26 1012.18 1012.05 1011.92 1011.85 1011.88 1012.02 1012.25 1012.53 1012.81 1013.03 1013.18 1013.24 1013.24 1013.22 1013.21 1013.26 1013.37 1013.54 1013.75 1013.97 1014.19 1014.39 1014.58 1014.77 1014.97 1015.21 1015.48 1015.77 1016.06 1016.34 1016.58 1016.79 1016.96 1017.11
1013.16 1012.88 1012.66 1012.53 1012.50 1012.55 1012.61 1012.64 1012.61 1012.52 1012.39 1012.27 1012.22 1012.27 1012.43 1012.67 1012.95 1013.21 1013.42 1013.54 1013.58 1013.56 1013.52 1013.50 1013.54 1013.65 1013.82 1014.03 1014.25 1014.46 1014.66 1014.85 1015.03 1015.24 1015.49 1015.76 1016.06 1016.35 1016.63 1016.88 1017.09 1017.26 1017.43
1013.06 1012.87 1012.73 1012.67 1012.70 1012.79 1012.88 1012.93 1012.92 1012.84 1012.73 1012.63 1012.59 1012.64 1012.79 1013.02 1013.28 1013.52 1013.70 1013.80 1013.83 1013.80 1013.77 1013.76 1013.82 1013.93 1014.11 1014.32 1014.54 1014.75 1014.94 1015.13 1015.32 1015.54 1015.79 1016.08 1016.38 1016.67 1016.95 1017.20 1017.40 1017.58 1017.74
1012.90 1012.78 1012.71 1012.72 1012.81 1012.95 1013.08 1013.18 1013.19 1013.15 1013.05 1012.97 1012.93 1012.98 1013.12 1013.31 1013.54 1013.75 1013.91 1014.00 1014.03 1014.02 1014.01 1014.04 1014.11 1014.25 1014.44 1014.65 1014.86 1015.06 1015.25 1015.43 1015.63 1015.86 1016.12 1016.41 1016.71 1017.01 1017.28 1017.51 1017.71 1017.88 1018.05
1012.76 1012.68 1012.66 1012.73 1012.88 1013.06 1013.25 1013.38 1013.44 1013.42 1013.36 1013.29 1013.26 1013.30 1013.41 1013.58 1013.77 1013.95 1014.09 1014.18 1014.22 1014.25 1014.28 1014.34 1014.45 1014.61 1014.80 1015.01 1015.20 1015.39 1015.57 1015.74 1015.94 1016.18 1016.44 1016.74 1017.04 1017.33 1017.58 1017.80 1017.99 1018.15 1018.31
1012.68 1012.64 1012.65 1012.76 1012.95 1013.18 1013.40 1013.56 1013.66 1013.67 1013.64 1013.59 1013.57 1013.60 1013.70 1013.83 1014.00 1014.15 1014.28 1014.38 1014.45 1014.51 1014.58 1014.69 1014.83 1015.01 1015.19 1015.38 1015.56 1015.72 1015.88 1016.05 1016.24 1016.47 1016.75 1017.04 1017.34 1017.62 1017.86 1018.06 1018.23 1018.38 1018.53
1012.70 1012.68 1012.72 1012.86 1013.07 1013.32 1013.55 1013.73 1013.84 1013.89 1013.88 1013.85 1013.85 1013.89 1013.98 1014.10 1014.25 1014.39 1014.51 1014.62 1014.71 1014.80 1014.91 1015.05 1015.21 1015.39 1015.57 1015.74 1015.89 1016.03 1016.16 1016.32 1016.51 1016.74 1017.02 1017.31 1017.61 1017.88 1018.10 1018.29 1018.43 1018.57 1018.71
1012.81 1012.81 1012.88 1013.03 1013.25 1013.49 1013.71 1013.89 1014.00 1014.05 1014.07 1014.07 1014.10 1014.16 1014.26 1014.39 1014.53 1014.67 1014.79 1014.89 1014.99 1015.10 1015.23 1015.38 1015.55 1015.73 1015.89 1016.04 1016.17 1016.28 1016.40 1016.54 1016.73 1016.97 1017.24 1017.54 1017.83 1018.09 1018.30 1018.47 1018.60 1018.71 1018.85
1012.97 1013.00 1013.10 1013.26 1013.46 1013.68 1013.87 1014.02 1014.12 1014.17 1014.20 1014.24 1014.30 1014.40 1014.53 1014.68 1014.83 1014.96 1015.08 1015.18 1015.27 1015.37 1015.50 1015.64 1015.80 1015.97 1016.12 1016.25 1016.36 1016.46 1016.57 1016.72 1016.91 1017.15 1017.43 1017.72 1018.01 1018.26 1018.46 1018.61 1018.73 1018.83 1018.96
1013.10 1013.19 1013.31 1013.48 1013.67 1013.85 1014.00 1014.11 1014.18 1014.22 1014.27 1014.35 1014.46 1014.61 1014.78 1014.96 1015.12 1015.26 1015.36 1015.44 1015.51 1015.59 1015.69 1015.81 1015.96 1016.10 1016.24 1016.37 1016.47 1016.58 1016.70 1016.84 1017.04 1017.29 1017.57 1017.86 1018.14 1018.38 1018.58 1018.72 1018.83 1018.93 1019.05
1013.15 1013.29 1013.46 1013.64 1013.81 1013.96 1014.06 1014.13 1014.17 1014.21 1014.28 1014.39 1014.55 1014.76 1014.98 1015.19 1015.38 1015.52 1015.61 1015.66 1015.70 1015.74 1015.80 1015.89 1016.01 1016.14 1016.28 1016.41 1016.52 1016.64 1016.77 1016.94 1017.14 1017.39 1017.66 1017.95 1018.22 1018.46 1018.65 1018.80 1018.91 1019.01 1019.13
1013.05 1013.26 1013.47 1013.68 1013.85 1013.96 1014.04 1014.07 1014.09 1014.13 1014.22 1014.37 1014.58 1014.84 1015.11 1015.36 1015.57 1015.72 1015.79 1015.82 1015.82 1015.83 1015.85 1015.91 1016.01 1016.13 1016.26 1016.40 1016.54 1016.68 1016.83 1017.01 1017.22 1017.46 1017.72 1018.00 1018.26 1018.49 1018.68 1018.83 1018.95 1019.06 1019.19
1012.78 1013.05 1013.32 1013.55 1013.73 1013.85 1013.90 1013.92 1013.94 1013.99 1014.10 1014.29 1014.54 1014.84 1015.16 1015.45 1015.68 1015.83 1015.90 1015.92 1015.90 1015.87 1015.87 1015.90 1015.98 1016.10 1016.25 1016.40 1016.56 1016.72 1016.89 1017.07 1017.28 1017.50 1017.74 1018.00 1018.24 1018.46 1018.65 1018.81 1018.95 1019.08 1019.22
1012.35 1012.67 1012.99 1013.26 1013.47 1013.60 1013.67 1013.71 1013.74 1013.81 1013.95 1014.16 1014.44 1014.78 1015.12 1015.43 1015.68 1015.85 1015.93 1015.95 1015.93 1015.89 1015.88 1015.91 1015.99 1016.11 1016.26 1016.44 1016.62 1016.79 1016.97 1017.15 1017.33 1017.53 1017.73 1017.95 1018.16 1018.37 1018.56 1018.74 1018.90 1019.06 1019.22
1011.81 1012.17 1012.52 1012.83 1013.08 1013.26 1013.37 1013.45 1013.53 1013.63 1013.79 1014.02 1014.31 1014.65 1015.00 1015.32 1015.59 1015.78 1015.88 1015.92 1015.92 1015.91 1015.91 1015.96 1016.04 1016.18 1016.34 1016.53 1016.72 1016.90 1017.07 1017.23 1017.38 1017.53 1017.69 1017.86 1018.04 1018.22 1018.41 1018.60 1018.79 1018.98 1019.17
1011.24 1011.61 1011.98 1012.33 1012.63 1012.87 1013.06 1013.20 1013.33 1013.47 1013.65 1013.89 1014.17 1014.49 1014.82 1015.13 1015.40 1015.61 1015.75 1015.84 1015.88 1015.92 1015.96 1016.03 1016.15 1016.29 1016.47 1016.67 1016.86 1017.03 1017.18 1017.31 1017.43 1017.53 1017.63 1017.75 1017.88 1018.04 1018.22 1018.42 1018.63 1018.84 1019.06
1010.72 1011.07 1011.45 1011.83 1012.18 1012.50 1012.77 1012.99 1013.19 1013.38 1013.58 1013.80 1014.04 1014.32 1014.60 1014.88 1015.14 1015.37 1015.55 1015.69 1015.81 1015.91 1016.01 1016.13 1016.27 1016.44 1016.62 1016.82 1017.00 1017.16 1017.29 1017.39 1017.46 1017.51 1017.56 1017.62 1017.70 1017.82 1017.98 1018.18 1018.40 1018.64 1018.87
1010.30 1010.62 1010.99 1011.39 1011.79 1012.18 1012.54 1012.86 1013.13 1013.36 1013.57 1013.76 1013.95 1014.16 1014.38 1014.61 1014.84 1015.07 1015.29 1015.50 1015.68 1015.86 1016.02 1016.19 1016.37 1016.56 1016.75 1016.94 1017.12 1017.27 1017.38 1017.45 1017.49 1017.49 1017.49 1017.49 1017.52 1017.59 1017.72 1017.89 1018.11 1018.35 1018.60
1010.01 1010.29 1010.64 1011.05 1011.50 1011.95 1012.40 1012.80 1013.14 1013.41 1013.62 1013.78 1013.90 1014.03 1014.16 1014.33 1014.52 1014.75 1015.00 1015.26 1015.52 1015.76 1015.99 1016.21 1016.42 1016.62 1016.82 1017.01 1017.18 1017.32 1017.42 1017.49 1017.50 1017.47 1017.43 1017.38 1017.35 1017.37 1017.44 1017.57 1017.76 1017.98 1018.23
1009.86 1010.11 1010.43 1010.83 1011.30 1011.80 1012.32 1012.79 1013.19 1013.50 1013.71 1013.83 1013.89 1013.92 1013.97 1014.07 1014.22 1014.43 1014.70 1015.00 1015.32 1015.62 1015.90 1016.16 1016.39 1016.60 1016.80 1016.99 1017.16 1017.31 1017.42 1017.48 1017.50 1017.46 1017.38 1017.29 1017.20 1017.15 1017.15 1017.22 1017.34 1017.53 1017.74
1009.81 1010.03 1010.32 1010.70 1011.17 1011.70 1012.26 1012.79 1013.23 1013.57 1013.78 1013.87 1013.87 1013.84 1013.82 1013.84 1013.95 1014.15 1014.43 1014.76 1015.11 1015.45 1015.76 1016.04 1016.28 1016.50 1016.69 1016.88 1017.06 1017.22 1017.35 1017.44 1017.47 1017.44 1017.35 1017.22 1017.08 1016.95 1016.86 1016.84 1016.88 1016.99 1017.15
1009.83 1010.03 1010.28 1010.62 1011.07 1011.60 1012.17 1012.73 1013.21 1013.57 1013.78 1013.86 1013.83 1013.75 1013.67 1013.66 1013.74 1013.91 1014.19 1014.53 1014.90 1015.26 1015.59 1015.87 1016.10 1016.31 1016.49 1016.68 1016.87 1017.06 1017.22 1017.35 1017.42 1017.41 1017.32 1017.16 1016.97 1016.76 1016.58 1016.44 1016.38 1016.39 1016.47
1009.88 1010.05 1010.26 1010.55 1010.95 1011.45 1012.01 1012.56 1013.06 1013.43 1013.66 1013.74 1013.71 1013.61 1013.52 1013.49 1013.55 1013.72 1014.00 1014.34 1014.71 1015.07 1015.39 1015.65 1015.87 1016.05 1016.22 1016.40 1016.60 1016.82 1017.02 1017.20 1017.31 1017.33 1017.25 1017.09 1016.85 1016.57 1016.29 1016.05 1015.87 1015.78 1015.77
1009.93 1010.09 1010.24 1010.46 1010.79 1011.23 1011.74 1012.27 1012.76 1013.14 1013.39 1013.49 1013.48 1013.40 1013.33 1013.30 1013.37 1013.55 1013.83 1014.17 1014.53 1014.87 1015.16 1015.39 1015.57 1015.73 1015.88 1016.05 1016.26 1016.49 1016.74 1016.96 1017.12 1017.18 1017.13 1016.97 1016.70 1016.37 1016.02 1015.68 1015.40 1015.20 1015.11
1009.99 1010.11 1010.21 1010.35 1010.58 1010.93 1011.37 1011.86 1012.32 1012.70 1012.96 1013.10 1013.12 1013.09 1013.05 1013.06 1013.16 1013.35 1013.63 1013.97 1014.31 1014.63 1014.89 1015.08 1015.22 1015.34 1015.46 1015.62 1015.83 1016.08 1016.36 1016.62 1016.83 1016.93 1016.92 1016.77 1016.51 1016.15 1015.75 1015.35 1015.00 1014.72 1014.55
Thickness
5777 5781 5782 5782 5783 5783 5782 5782 5782 5781 5781 5780 5780 5779 5778 5777 5776 5775 5773 5771 5770 5769 5767 5766 5764 5763 5761 5760 5758 5757 5755 5754 5752 5750 5749 5748 5746 5745 5743 5742 5741 5740 5739
5781 5782 5782 5782 5782 5782 5781 5780 5780 5780 5779 5778 5778 5777 5776 5775 5774 5773 5771 5770 5769 5767 5766 5764 5762 5761 5759 5758 5757 5755 5754 5752 5751 5749 5748 5746 5745 5743 5742 5741 5740 5738 5737
5782 5782 5781 5781 5781 5780 5780 5779 5779 5778 5777 5776 5776 5775 5774 5774 5772 5771 5770 5769 5767 5766 5764 5763 5761 5760 5758 5756 5755 5754 5752 5751 5749 5748 5746 5745 5743 5742 5741 5740 5738 5737 5735
5783 5782 5781 5780 5780 5779 5778 5778 5777 5777 5776 5775 5774 5773 5772 5772 5771 5769 5768 5767 5766 5764 5763 5762 5760 5758 5757 5755 5754 5752 5751 5750 5748 5747 5745 5744 5743 5741 5740 5738 5737 5735 5734
5783 5782 5780 5780 5779 5778 5777 5776 5776 5775 5774 5773 5772 5771 5770 5770 5769 5768 5767 5765 5764 5763 5762 5760 5759 5757 5756 5754 5753 5751 5750 5749 5747 5745 5744 5743 5741 5740 5739 5737 5736 5734 5732
5783 5781 5780 5779 5778 5777 5775 5775 5774 5773 5772 5771 5770 5770 5769 5768 5767 5766 5765 5764 5763 5762 5761 5759 5758 5757 5755 5753 5752 5750 5749 5748 5745 5744 5742 5741 5740 5739 5738 5736 5735 5732 5730
5782 5781 5779 5778 5777 5776 5774 5773 5773 5772 5771 5770 5769 5768 5767 5766 5765 5764 5763 5762 5761 5760 5760 5759 5757 5756 5754 5753 5751 5750 5748 5747 5744 5743 5741 5740 5739 5738 5736 5735 5733 5731 5729
5784 5781 5779 5777 5776 5775 5774 5772 5771 5771 5770 5769 5767 5766 5765 5764 5763 5763 5762 5761 5760 5760 5759 5758 5757 5756 5754 5752 5751 5749 5747 5745 5743 5742 5740 5739 5738 5736 5735 5733 5731 5729 5728
5784 5781 5779 5777 5775 5774 5773 5771 5770 5769 5768 5767 5766 5765 5764 5763 5762 5761 5760 5760 5759 5759 5758 5757 5756 5755 5753 5752 5750 5748 5746 5744 5742 5740 5739 5737 5736 5735 5734 5732 5730 5728 5726
5783 5781 5779 5777 5775 5773 5772 5771 5769 5768 5767 5766 5764 5764 5763 5762 5761 5760 5759 5759 5758 5758 5757 5756 5755 5754 5753 5751 5749 5748 5746 5743 5741 5739 5738 5736 5735 5734 5732 5731 5729 5727 5725
5781 5780 5779 5777 5775 5773 5772 5770 5769 5767 5766 5765 5763 5762 5761 5760 5759 5758 5758 5757 5757 5756 5756 5755 5754 5753 5751 5750 5748 5747 5745 5743 5740 5738 5737 5736 5734 5733 5731 5730 5728 5726 5725
5780 5780 5780 5778 5776 5774 5773 5770 5769 5767 5765 5764 5762 5761 5760 5759 5758 5757 5757 5756 5756 5755 5754 5754 5754 5752 5751 5749 5748 5746 5744 5742 5740 5738 5736 5735 5734 5732 5731 5729 5727 5726 5724
5785 5783 5782 5780 5777 5775 5774 5771 5769 5767 5765 5763 5762 5760 5759 5758 5757 5757 5756 5755 5754 5754 5753 5753 5752 5752 5750 5749 5748 5746 5744 5742 5740 5738 5736 5735 5733 5732 5730 5728 5727 5725 5723
5788 5786 5785 5782 5779 5777 5775 5772 5770 5768 5766 5764 5762 5760 5759 5757 5756 5756 5755 5754 5754 5753 5752 5751 5751 5751 5750 5749 5748 5746 5744 5742 5740 5738 5737 5735 5733 5732 5730 5728 5726 5724 5723
5791 5789 5788 5785 5782 5779 5776 5773 5771 5769 5767 5765 5763 5761 5759 5758 5756 5755 5754 5754 5753 5753 5752 5751 5750 5749 5749 5749 5748 5746 5744 5742 5740 5738 5737 5735 5733 5732 5730 5728 5726 5724 5722
5795 5793 5791 5788 5785 5782 5778 5775 5773 5770 5768 5766 5764 5762 5760 5759 5757 5755 5754 5753 5753 5752 5752 5751 5749 5749 5748 5748 5747 5745 5744 5742 5740 5739 5737 5735 5733 5732 5730 5728 5727 5725 5723
5799 5796 5793 5790 5787 5784 5781 5778 5775 5772 5769 5767 5764 5763 5761 5759 5758 5756 5754 5753 5753 5752 5751 5750 5749 5748 5747 5747 5746 5745 5744 5742 5740 5739 5737 5735 5733 5732 5731 5729 5727 5726 5724
5802 5798 5795 5793 5789 5785 5782 5779 5776 5773 5770 5767 5765 5763 5761 5759 5758 5757 5755 5753 5752 5751 5751 5749 5748 5746 5745 5745 5744 5744 5743 5742 5740 5739 5737 5735 5733 5732 5731 5730 5728 5727 5725
5805 5801 5796 5794 5789 5786 5783 5779 5776 5773 5770 5767 5765 5763 5761 5759 5757 5756 5754 5753 5752 5751 5750 5749 5747 5745 5744 5743 5743 5743 5743 5742 5741 5739 5737 5735 5734 5733 5732 5731 5729 5728 5726
5808 5803 5798 5794 5790 5786 5782 5778 5774 5772 5770 5767 5765 5763 5761 5759 5757 5756 5754 5752 5751 5750 5748 5747 5745 5745 5744 5743 5743 5742 5742 5742 5740 5739 5738 5737 5735 5734 5732 5731 5730 5728 5727
5808 5803 5799 5794 5791 5786 5781 5776 5771 5768 5768 5766 5765 5763 5761 5759 5757 5755 5753 5752 5750 5748 5747 5747 5745 5743 5742 5743 5739 5736 5739 5741 5741 5740 5740 5738 5737 5736 5733 5732 5731 5729 5728
5808 5804 5800 5796 5792 5788 5783 5779 5774 5771 5768 5767 5765 5762 5760 5759 5757 5756 5754 5752 5750 5748 5747 5746 5745 5741 5741 5742 5737 5731 5728 5731 5737 5741 5740 5739 5738 5737 5735 5733 5732 5731 5729
5809 5805 5802 5797 5794 5789 5784 5779 5774 5770 5767 5764 5762 5761 5761 5759 5758 5756 5754 5753 5751 5749 5747 5746 5745 5742 5738 5740 5740 5733 5725 5722 5728 5735 5739 5740 5739 5738 5737 5735 5733 5732 5731
5813 5810 5804 5799 5795 5791 5786 5780 5773 5767 5763 5764 5763 5762 5762 5761 5758 5756 5754 5753 5751 5750 5748 5747 5747 5744 5741 5738 5739 5739 5737 5734 5727 5726 5733 5737 5739 5738 5737 5737 5735 5734 5732
5816 5812 5806 5800 5795 5791 5787 5782 5775 5770 5768 5766 5765 5762 5761 5760 5759 5757 5755 5753 5752 5751 5749 5748 5747 5746 5744 5741 5738 5738 5737 5735 5734 5727 5724 5729 5734 5737 5738 5737 5736 5735 5734
5815 5811 5806 5800 5795 5792 5787 5782 5777 5772 5769 5765 5763 5761 5760 5759 5758 5758 5756 5755 5753 5752 5750 5750 5749 5747 5745 5743 5741 5739 5737 5734 5732 5729 5726 5726 5728 5733 5737 5737 5737 5736 5735